sat.trackr.live / text

‹ back to catalog

ONEWEB-0396

NORAD 50476 · 2021-132H

PAYLOAD ACTIVE UNKNOWN

§ Identity

Operator
Country
UK
Launch date
2021-12-27
Launch site
TYMSC
Launch vehicle
Mass (kg)
RCS (m²)

Purposes: comms

External: N2YO · Heavens-Above · Gunter

§ Orbital elements

Epoch: 2026-09-19T22:29:17.431584Z

Period
109.20 min
Inclination
87.9162°
Eccentricity
0.0002090
Mean motion
13.18687424 rev/d
Perigee alt
1,188.2 km
Apogee alt
1,191.3 km
Semi-major
7,567.9 km
B*
1.3357e-4
RAAN
316.6310°
Arg perigee
100.1130°
Mean anomaly
260.0238°
Rev number
23,412

§ Raw data

ONEWEB-03961 50476U 21132H   26262.93700731  .00000066  00000+0  13357-3 0  99922 50476  87.9162 316.6310 0002090 100.1130 260.0238 13.18687424234121

JSON: /api/v1/satellites/50476 · /tle

For live sub-satellite position, see the globe view (requires WebGL).

§ Visibility from observer

Set your observer location to see the next 7 days of passes ≥ 10°. The values pass through the URL so the page stays shareable.

No JS? Fill the form by hand. The geolocation button needs JavaScript.